Weather History for Sitka, AK

Change the Weather History Date:

Sunday, February 17, 2013

  Actual Average Record
Temperature  
Mean Temperature 37 °F -  
Max Temperature 39 °F 40 °F 50 °F (1998)
Min Temperature 35 °F 32 °F 15 °F (1954)
Degree Days  
Heating Degree Days 28    
Moisture  
Dew Point 32 °F    
Average Humidity 82    
Maximum Humidity 93    
Minimum Humidity 68    
Precipitation  
Precipitation 0.25 in - - ()
Sea Level Pressure  
Sea Level Pressure 29.89 in    
Wind  
Wind Speed 11 mph (ESE)    
Max Wind Speed 25 mph    
Max Gust Speed 33 mph    
Visibility 9 miles    
Events Rain , Snow    
Averages and records for this station are not official NWS values.
T = Trace of Precipitation, MM = Missing Value Source: NWS Daily Summary

Daily Weather History Graph

Daily Weather History Graph

Search for Another Location

Airport:

Trip Planner

Search our weather history database for the weather conditions in past years. The results will help you decide how hot, cold, wet, or windy it might be!

Date:

Astronomy

Feb. 17, 2013 Rise Set
Actual Time 7:23 AM AKST 5:08 PM AKST
Civil Twilight 6:44 AM AKST 5:47 PM AKST
Nautical Twilight 5:59 AM AKST 6:32 PM AKST
Astronomical Twilight 5:15 AM AKST 7:16 PM AKST
Moon 9:46 AM AKST (2/17) 1:44 AM AKST (2/17)
Length of Visible Light 11h 03m
Length of Day
9h 44m
Waxing Crescent, 50% of the Moon is Illuminated
Feb 17
Waxing Crescent
Feb 25
Full
Mar 4
Last Quarter
Mar 11
New
Mar 19
First Quarter

Hourly Weather History & Observations

Time (AKST) Temp. Windchill Dew Point Humidity Pressure Visibility Wind Dir Wind Speed Gust Speed Precip Events Conditions
12:36 AM 35.6 °F 30.7 °F 32.0 °F 87% 30.15 in 10.0 mi East 5.8 mph - 0.00 in   Overcast
12:53 AM 35.1 °F 29.3 °F 32.0 °F 89% 30.15 in 10.0 mi East 6.9 mph - 0.00 in   Overcast
1:04 AM 35.6 °F 29.9 °F 32.0 °F 87% 30.14 in 10.0 mi East 6.9 mph - N/A   Overcast
1:53 AM 36.0 °F 29.0 °F 32.0 °F 86% 30.13 in 10.0 mi ESE 9.2 mph - 0.00 in   Overcast
3:28 AM 35.6 °F 27.5 °F 33.8 °F 93% 30.10 in 6.0 mi ESE 11.5 mph - 0.00 in Snow Light Snow
3:53 AM 35.1 °F 27.9 °F 33.1 °F 92% 30.09 in 8.0 mi East 9.2 mph - 0.00 in Rain , Snow Light Rain
4:05 AM 35.6 °F 28.6 °F 33.8 °F 93% 30.07 in 10.0 mi East 9.2 mph - 0.00 in   Overcast
4:53 AM 36.0 °F 28.5 °F 32.0 °F 86% 30.06 in 10.0 mi ESE 10.4 mph - 0.00 in Rain , Snow Light Rain
5:05 AM 35.6 °F 28.6 °F 32.0 °F 87% 30.04 in 10.0 mi ESE 9.2 mph - 0.00 in   Overcast
5:53 AM 36.0 °F 27.1 °F 30.9 °F 82% 30.01 in 7.0 mi East 13.8 mph - 0.00 in   Overcast
6:53 AM 36.0 °F 27.5 °F 30.9 °F 82% 29.97 in 7.0 mi ESE 12.7 mph - N/A   Overcast
7:53 AM 37.0 °F 29.3 °F 30.0 °F 76% 29.94 in 10.0 mi ESE 11.5 mph - N/A   Overcast
8:53 AM 37.0 °F 29.3 °F 30.0 °F 76% 29.92 in 10.0 mi ESE 11.5 mph - N/A   Overcast
9:53 AM 37.0 °F 28.9 °F 30.9 °F 79% 29.90 in 10.0 mi ESE 12.7 mph - N/A   Overcast
10:53 AM 37.0 °F 29.8 °F 32.0 °F 82% 29.88 in 8.0 mi ESE 10.4 mph - 0.00 in Rain Light Rain
11:53 AM 37.0 °F 28.9 °F 32.0 °F 82% 29.84 in 9.0 mi SE 12.7 mph - 0.00 in   Overcast
12:53 PM 37.9 °F 29.6 °F 32.0 °F 79% 29.81 in 10.0 mi ESE 13.8 mph - N/A   Overcast
1:53 PM 39.9 °F 32.1 °F 30.9 °F 70% 29.77 in 10.0 mi ESE 13.8 mph - N/A   Overcast
2:53 PM 39.9 °F 31.8 °F 30.0 °F 68% 29.73 in 10.0 mi ESE 15.0 mph - N/A   Overcast
3:53 PM 39.9 °F 30.5 °F 30.0 °F 68% 29.69 in 10.0 mi ESE 19.6 mph 26.5 mph N/A   Overcast
4:53 PM 39.9 °F 29.2 °F 30.9 °F 70% 29.67 in 10.0 mi ESE 25.3 mph 29.9 mph 0.00 in Rain Light Rain
5:53 PM 39.9 °F 30.0 °F 32.0 °F 73% 29.65 in 10.0 mi ESE 21.9 mph 29.9 mph 0.00 in   Overcast
6:53 PM 39.0 °F 29.0 °F 33.1 °F 79% 29.64 in 10.0 mi ESE 20.7 mph 33.4 mph 0.00 in Rain Light Rain
8:53 PM 39.0 °F 30.3 °F 34.0 °F 82% 29.64 in 7.0 mi ESE 16.1 mph 25.3 mph 0.05 in Rain Light Rain
9:53 PM 39.0 °F 31.8 °F 35.1 °F 86% 29.65 in 9.0 mi SE 11.5 mph - 0.11 in Rain Light Rain
10:53 PM 39.0 °F 31.0 °F 35.1 °F 86% 29.65 in 7.0 mi ESE 13.8 mph 19.6 mph 0.04 in Rain Light Rain
11:53 PM 37.9 °F 31.5 °F 36.0 °F 93% 29.66 in 7.0 mi ESE 9.2 mph - 0.05 in Rain Light Rain